Location: Unspecified
(17.6330°N, 0.0000°E)
Time: 15:44:21
(UTC+00:00)

S-56A Canister/Altair - Pass Details

Date: 01 July 2019
Orbit: 633 x 2499 km, 38.9° (Epoch: 21 August)

Event Time Altitude Azimuth Distance (km) Brightness Sun altitude
Rises 21:07:08 0° 288° (WNW) 3,453 11.8 -30.6°
Reaches altitude 10° 21:10:34 10° 271° (W) 2,284 10.5 -31.3°
Enters shadow 21:12:53 17° 246° (WSW) 1,723 9.5 -31.7°
Maximum altitude 21:14:06 19° 226° (SW) 1,601 - -31.9°
Drops below altitude 10° 21:17:16 10° 181° (S) 2,017 - -32.4°
Sets 21:20:04 0° 161° (SSE) 2,906 - -32.9°
